Wetbulb
43.93 44.74 46.14 48.79 50.90 51.10 51.29 61.96 65.20 66.90 67.16 66.73 66.03 65.49 65.07 64.94 64.88 66.78 67.01 66.76 67.14 67.14 66.47 66.08 64.71 64.11 63.77 63.34 62.89 61.11 59.95 57.68 60.49 58.48 57.84 58.30 58.03 57.97 58.55 58.42 58.11 57.27 58.08
43.07 44.81 48.39 47.70 50.54 50.56 54.27 62.21 65.91 66.55 67.28 66.90 65.39 63.27 64.29 64.70 65.69 65.07 65.72 66.85 67.10 67.12 66.92 66.27 65.16 64.24 63.49 63.09 61.97 61.13 59.64 58.69 59.78 57.67 56.77 53.13 54.82 56.97 57.78 57.83 57.88 56.59 57.84
42.19 44.01 49.85 50.73 53.70 54.85 55.62 57.86 59.53 61.79 61.55 61.42 61.89 62.16 62.80 63.11 63.35 62.97 63.57 64.60 66.11 66.18 67.01 66.16 64.97 64.15 63.70 62.38 62.00 61.49 60.34 58.37 59.37 58.83 57.30 53.33 52.50 54.60 55.95 56.81 57.20 56.85 57.29
42.32 44.41 49.76 52.45 54.37 55.33 55.49 56.33 58.77 59.81 59.95 58.21 56.81 59.79 61.61 61.15 63.00 63.93 64.81 64.13 63.85 64.76 66.02 65.21 64.54 64.02 63.52 62.41 62.07 62.15 60.85 60.27 58.17 58.64 58.73 55.95 55.49 53.11 50.98 56.01 56.43 57.00 56.25
41.53 43.75 50.03 54.18 54.65 55.21 55.75 55.35 56.60 58.55 59.83 59.93 58.65 58.00 57.42 59.15 59.75 62.23 63.07 64.01 63.06 64.08 64.83 64.71 64.18 63.72 63.58 63.07 62.03 61.65 61.09 60.68 59.73 58.72 58.17 56.63 54.68 54.57 52.79 51.59 53.42 55.38 56.20
41.19 45.88 50.04 52.61 52.60 53.04 53.17 55.50 57.48 57.70 58.26 58.01 58.58 58.44 58.45 58.95 59.00 60.41 62.90 63.37 63.09 62.69 64.38 64.57 64.17 64.04 63.62 63.13 62.34 62.20 61.50 60.93 60.57 59.89 58.85 57.58 55.43 53.53 51.37 51.30 53.16 53.45 54.78
44.13 44.96 50.57 52.58 50.71 50.84 54.06 55.45 55.70 55.29 56.59 57.41 57.17 56.35 57.24 57.67 58.59 59.12 61.04 61.96 60.80 60.93 62.07 63.60 63.36 63.82 63.81 63.84 62.73 62.07 61.56 60.95 60.22 59.33 59.16 58.71 58.17 57.35 55.68 54.37 53.24 52.93 52.53
44.44 45.10 52.02 51.95 50.67 51.47 52.42 53.37 53.72 53.25 53.68 53.64 53.59 53.78 54.78 56.01 57.71 59.03 59.78 60.41 60.41 60.44 61.42 62.37 63.28 64.11 63.69 63.13 62.70 62.03 61.64 61.24 60.51 59.69 59.15 58.85 59.00 58.77 56.88 55.22 53.62 52.02 51.42
43.33 46.88 50.65 50.96 50.57 50.88 51.81 52.13 50.99 51.47 51.77 51.67 51.32 51.36 52.28 53.25 54.76 56.51 58.67 60.00 60.74 61.07 60.96 63.22 63.08 63.04 63.12 62.54 62.25 61.80 61.18 60.94 60.55 59.91 59.35 58.83 59.66 59.06 57.68 57.50 55.99 53.69 50.01
44.05 47.16 49.37 50.89 51.41 51.52 51.60 50.59 50.76 50.05 49.77 49.56 50.11 49.97 50.58 51.34 52.67 55.63 57.07 58.39 59.95 60.08 60.65 61.60 62.40 62.56 62.36 62.22 61.70 61.48 61.20 60.46 60.44 60.19 59.30 59.11 59.75 59.86 58.95 57.66 56.75 56.24 54.10
42.93 47.99 49.94 50.42 50.51 50.22 49.35 48.56 48.39 47.70 47.17 47.46 48.36 48.66 49.60 50.63 51.21 51.23 51.93 54.66 58.13 59.29 60.40 61.37 61.08 61.85 61.72 61.25 60.86 60.76 60.34 59.90 59.82 60.04 59.81 59.14 59.45 59.37 59.05 58.08 56.96 55.75 55.55
43.79 47.19 48.51 48.58 47.49 46.04 45.25 44.57 44.59 44.48 44.97 46.22 47.11 47.62 48.42 48.57 48.47 48.47 48.46 50.30 52.70 57.19 59.79 60.82 60.92 61.20 61.43 60.92 60.38 59.92 59.91 59.44 59.19 59.52 59.27 59.23 59.33 58.85 59.08 57.97 56.69 55.83 55.63
43.94 44.06 43.88 43.15 42.47 42.04 42.09 41.89 41.88 42.21 43.46 44.65 44.43 44.39 44.96 45.55 45.74 45.22 46.34 47.22 49.55 52.40 57.22 60.18 59.68 59.48 59.94 59.94 60.29 59.93 59.39 59.12 59.25 59.17 58.55 58.51 58.03 57.61 57.91 57.95 56.85 56.25 55.46
40.64 41.30 40.86 40.61 40.53 40.01 39.40 39.20 39.32 40.68 42.08 42.91 42.07 41.70 41.33 41.42 42.07 43.23 43.45 44.46 45.52 47.74 51.77 57.44 59.95 59.29 58.76 58.82 58.68 58.64 58.28 57.83 57.75 57.59 57.67 57.76 57.56 57.40 57.61 57.01 56.13 55.40 52.81
38.02 38.44 38.76 38.62 37.55 37.01 36.38 36.53 37.42 38.58 39.04 39.91 40.28 38.79 39.08 39.61 40.25 40.66 41.25 42.13 43.41 45.52 49.27 52.14 59.32 59.17 58.25 57.71 56.99 57.05 56.69 56.45 56.11 55.99 56.49 56.95 55.77 51.40 53.85 57.29 56.55 55.43 50.83
36.79 36.60 37.36 36.56 35.23 34.45 34.14 34.56 34.70 34.68 36.53 37.71 36.43 36.64 36.69 37.29 37.96 38.23 38.85 40.60 41.94 42.75 44.59 47.99 51.76 58.32 57.31 48.77 46.96 52.60 55.47 55.47 54.91 54.75 54.81 55.45 49.79 49.41 45.87 46.06 45.69 51.72 49.17
33.34 33.36 33.80 33.93 33.31 32.38 32.77 31.95 32.42 33.17 33.41 33.27 33.23 33.90 34.40 34.98 36.10 37.21 38.21 39.50 40.05 40.39 41.59 43.95 47.77 56.41 57.19 46.24 45.87 45.69 54.94 54.19 53.99 53.79 51.54 48.77 48.39 47.85 48.77 42.97 43.16 42.97 42.40
30.81 31.19 31.34 31.97 31.40 30.93 30.93 31.51 31.82 30.80 30.71 30.27 30.08 30.87 31.66 32.97 34.74 36.09 36.96 37.92 38.55 39.48 40.64 42.02 46.41 52.10 53.36 43.34 44.06 44.06 51.30 49.24 44.97 42.79 42.07 44.97 39.71 38.26 41.34 38.08 36.81 37.54 43.70
29.78 29.31 29.82 30.11 29.51 28.56 28.85 29.11 29.03 28.44 28.35 27.78 28.05 28.98 30.30 31.65 33.31 34.05 35.14 36.55 37.49 38.49 39.84 41.70 42.24 43.64 47.13 39.89 40.98 43.28 41.24 36.60 34.09 33.37 33.37 34.45 34.64 36.73 39.88 36.99 35.36 33.00 32.28
28.10 27.23 27.62 27.74 26.98 26.49 26.46 26.21 25.63 25.63 24.99 26.18 26.93 28.51 30.29 31.37 31.51 33.20 34.42 34.86 35.98 37.27 39.68 38.25 37.84 37.19 39.00 37.67 38.57 41.78 38.81 34.41 32.93 32.46 32.64 34.47 34.08 35.68 36.04 36.78 35.49 33.50 31.77
27.08 27.83 26.17 25.31 25.11 25.81 25.00 24.73 24.26 23.86 25.45 26.47 27.31 28.05 29.52 30.13 31.83 31.54 31.74 32.41 34.16 37.51 36.83 33.94 34.27 34.78 35.39 36.31 37.89 38.46 39.12 36.05 32.46 31.77 31.28 32.41 34.06 35.31 35.91 35.29 34.62 34.06 32.73
25.27 26.37 24.04 23.73 24.47 24.31 23.84 22.98 23.08 25.36 25.58 25.94 26.20 26.63 28.20 28.76 29.71 29.67 30.05 31.13 32.57 35.21 33.94 31.93 32.01 32.48 32.54 34.52 35.47 35.87 35.38 34.64 32.34 29.89 31.54 32.27 33.17 33.11 32.47 31.17 31.08 31.09 30.92
23.57 24.20 23.93 22.76 23.68 23.67 23.45 22.61 23.98 24.50 24.55 24.79 24.73 24.88 26.85 26.78 27.58 27.53 27.67 28.51 30.54 33.36 32.88 31.78 31.09 30.70 31.38 32.01 33.05 32.90 32.13 31.41 29.55 30.39 31.80 32.11 31.55 30.83 29.69 30.52 30.34 29.83 29.57
22.95 23.23 23.86 22.05 21.98 23.11 23.68 23.20 24.92 24.61 24.00 23.35 22.69 23.35 23.68 25.22 25.23 25.20 27.19 27.68 28.33 29.41 32.27 32.02 30.82 30.12 29.72 28.83 29.51 29.68 30.59 31.23 29.94 29.21 26.98 26.10 26.27 25.96 25.39 25.51 26.11 26.42 27.09
22.66 22.61 22.28 21.95 21.56 22.51 22.80 23.75 25.03 24.14 22.55 22.92 23.13 22.63 23.18 21.27 21.25 22.73 23.28 25.83 27.70 29.15 28.95 32.24 31.53 29.24 27.56 28.22 29.16 29.30 28.79 28.31 26.35 24.58 25.04 24.58 23.65 22.71 22.76 22.83 23.50 23.74 23.57
22.60 21.73 21.52 21.38 21.01 21.32 22.33 23.28 24.74 23.89 22.23 22.04 22.19 20.67 19.76 19.75 19.68 18.35 19.01 24.93 27.78 30.16 31.13 32.54 30.98 29.66 30.15 30.70 30.94 30.87 29.55 27.54 27.36 25.54 23.36 22.42 22.77 21.96 21.62 21.14 20.95 21.63 21.57
MSLP
1003.42 1003.10 1002.57 1002.06 1001.71 1001.35 1001.33 1001.89 1002.64 1003.10 1003.82 1004.78 1005.60 1006.32 1006.68 1007.24 1007.51 1007.90 1008.19 1008.82 1009.25 1009.61 1010.09 1010.40 1011.13 1011.58 1012.02 1012.46 1013.12 1014.24 1014.99 1015.69 1015.97 1016.78 1017.58 1017.78 1018.06 1018.20 1018.37 1018.55 1018.96 1019.24 1019.47
1003.36 1002.72 1002.08 1002.10 1002.12 1002.08 1001.93 1000.73 1001.96 1002.47 1003.09 1003.82 1004.74 1005.39 1005.91 1006.33 1006.36 1007.42 1007.73 1008.01 1008.44 1008.84 1009.37 1009.81 1010.29 1010.81 1011.59 1012.02 1012.48 1013.26 1014.30 1015.19 1015.59 1016.15 1016.90 1017.57 1018.27 1018.27 1018.41 1018.55 1018.95 1019.28 1019.52
1003.62 1002.75 1002.15 1002.36 1001.64 1002.25 1002.13 1001.21 1001.75 1002.34 1003.35 1003.81 1004.57 1005.33 1005.47 1006.14 1006.70 1007.15 1007.40 1007.63 1008.00 1008.39 1008.87 1009.30 1009.82 1010.16 1010.97 1011.45 1011.65 1012.36 1013.10 1014.11 1014.96 1015.08 1015.81 1016.49 1016.96 1017.63 1018.16 1018.20 1018.61 1019.08 1019.39
1003.47 1002.89 1002.72 1002.51 1001.72 1002.48 1002.45 1002.45 1002.46 1002.75 1003.14 1003.56 1004.29 1004.87 1005.26 1005.81 1006.13 1006.29 1006.56 1006.91 1007.36 1007.86 1008.23 1008.78 1009.22 1009.59 1010.13 1010.90 1011.22 1011.61 1012.09 1012.78 1013.85 1014.73 1014.70 1014.96 1015.34 1016.56 1017.52 1017.80 1018.06 1018.58 1019.04
1003.04 1002.39 1002.38 1001.93 1001.90 1002.00 1002.61 1003.15 1002.95 1002.88 1003.26 1003.50 1003.80 1004.76 1005.73 1006.09 1006.04 1006.04 1006.33 1006.61 1006.96 1007.21 1007.63 1008.05 1008.52 1008.99 1009.47 1010.00 1010.47 1011.04 1011.65 1012.03 1012.46 1013.37 1014.04 1014.75 1014.92 1015.03 1015.90 1016.65 1017.34 1018.11 1018.23
1003.29 1002.21 1002.04 1001.94 1002.73 1001.73 1002.34 1003.43 1003.44 1003.73 1003.93 1004.44 1004.47 1004.32 1005.48 1006.01 1006.22 1006.23 1006.26 1006.39 1006.66 1006.81 1006.98 1007.29 1007.66 1007.95 1008.51 1009.19 1009.70 1010.18 1010.70 1011.37 1011.54 1012.39 1012.93 1013.32 1013.84 1014.14 1014.73 1015.20 1016.12 1016.73 1017.61
1003.34 1002.40 1002.51 1002.58 1003.05 1003.01 1002.49 1003.01 1004.19 1005.09 1004.85 1004.96 1005.24 1005.00 1005.59 1006.27 1006.43 1006.26 1006.24 1006.35 1006.58 1006.59 1006.44 1006.54 1006.96 1007.12 1007.56 1008.22 1008.95 1009.58 1010.00 1010.51 1010.98 1011.43 1011.93 1012.43 1012.57 1012.83 1013.39 1014.18 1015.23 1016.13 1017.25
1003.28 1001.93 1002.14 1002.53 1002.80 1003.17 1003.24 1003.61 1003.80 1004.60 1005.68 1005.17 1004.95 1004.69 1005.69 1006.20 1006.43 1006.24 1006.10 1006.06 1006.20 1006.14 1006.04 1005.92 1005.95 1006.37 1006.77 1007.49 1008.02 1008.78 1009.20 1009.72 1010.26 1010.70 1011.19 1011.56 1011.92 1012.29 1012.50 1013.04 1014.01 1015.31 1016.40
1004.88 1002.34 1002.18 1002.81 1003.41 1003.97 1004.21 1004.38 1004.44 1005.09 1005.47 1005.63 1005.76 1005.90 1006.48 1006.53 1006.61 1006.23 1005.93 1005.71 1005.66 1005.62 1005.59 1005.56 1005.44 1005.68 1006.14 1006.78 1007.46 1007.82 1008.44 1008.96 1009.52 1010.02 1010.46 1010.96 1011.26 1011.73 1012.07 1012.23 1012.63 1013.45 1014.98
1006.44 1004.53 1004.32 1004.43 1004.53 1004.57 1005.31 1005.65 1004.92 1005.86 1007.11 1007.52 1007.05 1006.85 1006.67 1006.60 1006.50 1006.18 1005.95 1005.66 1005.44 1005.31 1005.14 1005.10 1005.13 1005.20 1005.64 1006.14 1006.60 1007.04 1007.44 1008.22 1008.78 1009.30 1009.88 1010.28 1010.50 1010.94 1011.44 1011.76 1012.13 1012.48 1013.56
1007.72 1006.59 1005.84 1005.34 1006.04 1006.43 1006.20 1006.44 1006.04 1007.08 1008.81 1009.08 1008.18 1007.35 1006.78 1007.12 1007.15 1007.00 1006.40 1005.86 1005.41 1005.06 1004.71 1004.67 1004.67 1004.78 1004.98 1005.49 1005.88 1006.24 1006.77 1007.38 1008.00 1008.48 1008.96 1009.25 1009.69 1010.13 1010.65 1010.96 1010.70 1011.70 1012.60
1008.70 1007.97 1006.77 1006.57 1007.78 1008.03 1007.99 1008.03 1007.62 1009.40 1009.15 1008.91 1008.74 1007.86 1007.42 1007.41 1007.44 1006.89 1006.52 1006.24 1005.58 1005.05 1004.48 1004.28 1004.02 1004.18 1004.37 1004.57 1005.10 1005.60 1006.07 1006.65 1007.16 1007.61 1008.17 1008.39 1008.84 1009.29 1009.66 1009.98 1009.97 1010.85 1011.78
1009.34 1009.08 1008.90 1008.97 1009.26 1009.78 1010.29 1010.16 1009.53 1009.86 1009.44 1009.91 1009.06 1008.23 1007.92 1007.84 1007.71 1007.09 1006.73 1006.26 1005.66 1005.21 1004.45 1003.77 1003.74 1003.77 1003.87 1004.10 1004.38 1004.82 1005.41 1005.93 1006.45 1006.89 1007.32 1007.73 1008.17 1008.51 1008.88 1009.23 1009.50 1009.75 1010.70
1010.84 1009.94 1010.31 1009.94 1010.83 1011.08 1010.91 1010.99 1010.24 1010.49 1010.72 1010.26 1009.86 1009.16 1008.93 1008.45 1007.75 1007.43 1006.93 1006.66 1006.18 1005.55 1004.71 1003.82 1003.30 1003.38 1003.34 1003.75 1004.03 1004.29 1004.76 1005.45 1005.87 1006.33 1006.67 1007.09 1007.46 1007.80 1008.16 1008.38 1008.54 1008.91 1010.03
1012.52 1012.41 1012.14 1012.17 1011.59 1011.27 1011.53 1011.04 1011.63 1011.90 1011.21 1011.05 1010.82 1009.95 1009.10 1008.60 1008.05 1007.56 1007.11 1006.64 1006.13 1005.60 1004.85 1004.02 1002.85 1002.77 1002.91 1003.15 1003.55 1003.85 1004.30 1004.97 1005.54 1005.92 1006.25 1006.51 1006.76 1007.10 1007.36 1007.72 1007.85 1008.46 1009.60
1013.21 1012.97 1013.03 1013.01 1012.73 1012.97 1013.03 1012.83 1012.67 1012.39 1012.06 1012.10 1011.47 1010.29 1009.74 1009.23 1008.57 1007.81 1007.19 1006.46 1005.96 1005.61 1005.01 1004.15 1003.37 1002.23 1001.98 1002.42 1002.69 1002.96 1003.67 1004.29 1005.01 1005.66 1005.85 1005.91 1006.13 1006.54 1006.74 1006.98 1007.16 1007.24 1008.58
1015.43 1015.27 1015.05 1015.03 1014.77 1014.50 1013.89 1013.64 1013.33 1012.96 1013.09 1012.32 1011.59 1011.01 1010.53 1009.67 1008.72 1008.04 1007.26 1006.69 1006.19 1005.66 1005.11 1004.32 1003.39 1002.04 1001.38 1001.59 1002.31 1002.55 1002.77 1003.34 1004.12 1004.97 1005.50 1005.81 1005.71 1005.95 1006.31 1006.58 1006.73 1007.22 1007.71
1016.86 1016.75 1016.75 1016.25 1015.87 1015.52 1015.16 1014.54 1014.15 1013.86 1013.65 1012.81 1011.97 1011.39 1010.88 1009.75 1008.78 1008.04 1007.40 1006.92 1006.40 1005.71 1004.94 1004.23 1003.25 1002.06 1000.92 1001.16 1001.46 1000.42 1002.85 1002.90 1003.75 1004.34 1004.83 1005.51 1005.76 1005.70 1005.97 1006.56 1007.21 1007.47 1007.53
1018.47 1017.90 1017.25 1016.75 1016.48 1016.31 1015.93 1015.31 1014.76 1014.43 1013.73 1013.03 1012.61 1012.18 1011.08 1009.92 1008.90 1008.07 1007.43 1006.95 1006.32 1005.68 1004.90 1004.14 1003.35 1002.53 1001.37 1001.01 1001.71 1001.39 1002.44 1003.01 1004.11 1004.92 1005.21 1005.47 1005.77 1005.72 1006.01 1006.60 1007.17 1007.93 1008.69
1019.10 1018.87 1018.48 1017.98 1017.43 1016.87 1016.40 1015.79 1015.36 1014.76 1014.19 1013.46 1013.14 1012.16 1010.84 1009.69 1008.93 1008.14 1007.40 1006.94 1006.35 1005.57 1004.82 1003.98 1003.44 1002.83 1002.18 1001.81 1001.44 1001.04 1002.11 1003.63 1004.53 1005.32 1005.65 1005.77 1005.95 1005.77 1006.09 1006.36 1006.95 1008.14 1008.85
1019.47 1019.21 1018.87 1018.53 1018.11 1017.51 1017.12 1016.49 1016.06 1015.32 1014.72 1013.64 1012.92 1011.85 1010.78 1009.91 1008.95 1008.40 1007.68 1006.71 1006.21 1005.43 1004.92 1004.19 1003.57 1003.32 1002.96 1002.17 1002.29 1001.72 1001.89 1003.23 1004.56 1005.32 1005.80 1006.17 1006.21 1005.91 1006.32 1006.62 1007.21 1007.68 1008.52
1018.86 1018.79 1018.52 1018.32 1018.18 1017.86 1017.13 1016.54 1015.71 1015.14 1014.08 1013.24 1012.68 1011.75 1010.78 1009.91 1009.03 1008.60 1007.60 1006.82 1006.30 1005.48 1005.23 1004.48 1003.80 1003.74 1003.61 1003.30 1002.89 1003.61 1002.65 1003.23 1004.09 1005.07 1005.71 1006.56 1006.40 1006.48 1006.83 1007.36 1008.03 1008.71 1009.32
1019.82 1019.41 1018.95 1018.46 1018.02 1017.80 1017.22 1016.21 1015.45 1014.87 1013.91 1013.20 1012.47 1011.61 1010.93 1010.24 1009.57 1008.86 1008.16 1007.11 1006.51 1005.85 1005.44 1004.58 1004.16 1004.12 1004.03 1004.04 1003.98 1003.11 1004.28 1003.79 1004.24 1005.25 1005.89 1006.75 1006.87 1007.37 1007.89 1008.66 1009.03 1009.24 1009.96
1020.11 1019.96 1019.46 1018.73 1018.26 1017.88 1017.23 1016.74 1015.72 1014.86 1013.83 1013.03 1012.68 1012.06 1011.29 1010.68 1010.27 1009.57 1008.87 1008.02 1007.35 1006.55 1005.34 1004.44 1004.26 1004.41 1004.57 1004.58 1004.92 1005.20 1005.12 1005.06 1004.71 1006.05 1006.87 1007.60 1007.75 1008.23 1008.87 1009.59 1010.06 1010.29 1010.87
1021.13 1020.69 1020.26 1019.57 1019.01 1018.10 1017.41 1016.94 1016.29 1015.14 1014.40 1014.11 1013.56 1012.92 1012.22 1011.88 1011.27 1010.63 1009.85 1008.96 1007.94 1006.77 1005.29 1004.23 1004.11 1004.37 1004.55 1004.86 1005.04 1005.47 1005.63 1006.10 1006.05 1005.66 1006.97 1008.09 1008.44 1009.17 1009.82 1010.45 1011.25 1011.73 1012.41
1021.26 1020.73 1020.29 1019.78 1019.24 1018.56 1017.71 1016.90 1016.23 1015.85 1015.59 1014.77 1014.17 1013.92 1013.60 1012.99 1012.15 1011.25 1010.08 1009.11 1007.99 1006.50 1004.75 1004.03 1003.87 1004.21 1004.22 1004.62 1004.84 1005.43 1005.74 1006.77 1007.71 1007.12 1006.77 1007.99 1008.89 1009.39 1010.30 1011.15 1012.17 1012.86 1013.26
Wind_Speed
8 8 9 8 9 7 12 10 12 12 12 10 10 7 9 8 7 8 11 11 12 15 14 10 11 11 12 12 12 6 9 2 5 4 3 2 4 5 4 5 5 6 7
10 8 8 3 3 5 10 16 15 14 12 10 7 3 5 5 9 7 8 11 13 14 13 12 11 12 9 11 11 12 6 3 8 5 5 3 2 3 5 5 6 6 6
10 9 6 2 7 5 4 7 9 9 7 7 5 2 4 3 3 4 5 8 10 11 13 13 11 12 10 10 13 13 14 8 7 9 5 4 4 4 3 7 7 8 7
9 9 4 4 9 5 6 6 8 9 7 8 5 4 3 3 4 6 8 8 10 10 13 12 12 12 10 11 12 12 12 12 9 6 5 2 5 4 3 4 8 7 9
10 11 10 11 10 10 8 6 6 8 7 7 9 6 3 1 0 2 5 8 7 11 13 13 15 13 11 13 14 12 11 11 11 10 9 6 2 3 4 5 7 7 9
12 10 4 9 3 9 11 6 10 8 8 7 6 11 7 2 2 2 4 5 7 6 12 14 14 14 13 13 13 14 16 13 11 10 10 11 8 6 4 3 11 11 7
17 10 9 8 8 7 12 12 12 7 6 8 6 9 7 3 3 4 4 5 6 5 8 12 13 12 14 13 12 13 14 13 12 12 11 9 11 7 9 8 7 7 3
15 11 15 12 10 7 8 11 16 12 6 9 8 10 8 4 3 3 3 4 5 5 6 8 10 11 13 12 14 11 11 13 11 13 11 9 9 9 8 10 10 7 3
21 6 8 11 8 6 7 10 12 14 12 10 8 8 5 5 4 5 4 3 4 5 6 8 9 11 12 13 13 10 12 11 11 11 11 10 8 8 7 9 9 9 10
20 16 9 9 8 10 10 11 16 15 11 8 6 4 4 5 5 5 5 5 5 5 6 8 8 10 11 12 13 10 11 11 9 8 12 13 10 9 10 10 10 11 11
17 12 9 15 15 13 15 14 18 15 8 6 5 4 6 6 5 5 6 8 7 6 6 9 10 11 12 11 12 11 11 13 12 11 13 14 13 9 9 10 11 12 12
14 12 11 19 16 16 17 16 16 11 8 9 7 7 6 7 6 6 8 8 8 10 7 7 9 10 12 13 13 12 11 13 13 13 13 12 9 12 10 11 14 13 11
10 14 16 15 13 14 12 11 12 12 12 10 10 9 9 7 7 9 8 9 10 11 11 6 8 9 11 12 13 13 12 12 13 12 12 10 8 9 9 9 12 14 12
18 16 13 13 12 11 12 12 12 12 11 10 10 9 9 9 9 8 8 9 8 9 10 10 9 11 11 12 11 12 11 10 10 9 9 10 11 13 11 8 13 13 11
14 15 15 12 14 15 13 14 11 10 11 10 9 10 10 10 10 9 9 9 9 9 10 12 11 10 11 10 12 12 11 11 10 10 10 11 12 13 13 9 12 12 12
18 18 17 16 15 15 14 12 11 11 10 9 10 11 11 10 10 11 11 11 10 10 11 10 14 10 9 14 16 14 11 11 10 10 10 10 12 12 16 15 11 16 16
15 15 14 13 13 12 13 13 12 11 10 10 10 11 11 12 11 11 12 12 14 12 12 12 14 13 12 15 17 17 11 11 10 10 8 6 6 10 8 12 14 12 16
15 13 11 10 10 11 12 12 11 10 10 10 11 12 12 12 12 12 12 13 13 12 10 11 13 15 8 12 17 17 8 7 5 4 5 7 7 5 8 6 4 2 13
11 12 12 11 11 11 12 11 11 11 11 12 12 12 12 14 14 13 13 12 11 12 10 9 12 11 9 9 13 12 7 6 5 3 2 3 4 6 11 8 9 6 4
8 8 10 10 10 11 12 11 11 12 13 13 13 13 14 14 14 13 13 11 11 12 10 6 6 6 6 7 7 10 7 7 5 3 4 3 4 11 10 10 12 10 6
10 10 10 8 9 10 11 10 10 12 13 12 14 14 13 14 12 14 12 12 12 11 7 4 5 4 5 4 6 6 9 8 7 4 3 2 9 12 12 9 5 6 13
14 13 11 11 10 10 10 11 12 15 15 15 14 14 14 12 11 14 13 13 12 9 6 2 2 3 4 6 3 4 5 12 9 7 6 7 15 17 17 14 21 19 12
11 12 11 12 12 12 12 15 15 15 16 15 15 14 15 13 12 12 12 11 11 9 6 2 1 1 3 4 6 11 8 16 11 7 14 20 24 25 19 20 18 13 9
12 12 13 13 13 12 12 11 15 16 15 16 16 13 14 14 13 8 8 9 9 9 6 2 2 1 3 4 4 3 7 18 18 20 12 11 14 16 14 11 10 8 7
10 10 11 12 13 13 13 12 12 15 14 12 11 13 10 10 10 8 6 7 9 9 8 6 3 5 4 4 6 5 3 5 8 18 11 9 9 10 10 10 10 10 9
9 10 11 12 13 12 13 14 13 13 12 11 9 9 8 8 6 6 7 12 14 18 15 9 4 2 9 13 12 11 14 15 12 4 12 10 9 10 10 10 10 9 12
Wind_Direction
268 272 285 294 274 224 183 179 180 177 164 170 171 173 183 190 182 193 188 184 197 199 196 192 187 186 190 190 181 156 173 130 154 111 124 109 163 162 191 190 195 186 189
290 297 289 352 356 307 239 166 180 171 174 172 170 156 165 195 192 187 189 189 195 199 200 197 192 186 191 187 180 170 156 146 170 157 133 164 206 190 196 181 194 196 190
273 282 278 167 88 25 14 118 132 130 141 151 127 111 89 83 130 180 201 203 195 202 200 198 195 185 191 195 185 179 174 174 185 175 145 155 194 172 178 196 189 191 198
288 271 200 143 124 127 73 73 113 122 132 141 138 134 146 165 194 194 206 204 197 197 198 193 199 186 188 196 194 185 186 175 185 188 225 189 139 178 166 185 193 188 201
258 253 210 166 170 140 132 121 98 90 86 100 112 105 102 275 345 176 196 209 211 205 203 194 192 191 191 194 190 184 193 192 177 193 190 212 181 189 147 182 179 198 202
281 263 214 126 169 132 120 95 101 92 79 63 100 98 89 24 318 264 225 221 229 215 209 202 197 193 188 190 195 193 191 195 189 192 192 199 189 185 178 160 192 198 195
264 247 162 167 158 143 122 122 102 105 125 112 75 99 92 119 220 242 229 239 244 234 219 195 196 191 191 191 191 195 194 192 196 188 197 200 213 199 199 193 181 178 140
308 216 184 167 145 140 112 122 134 114 66 70 89 59 43 22 329 284 244 219 216 232 234 203 187 188 184 189 185 192 192 191 203 199 200 203 207 206 197 196 172 174 158
350 353 137 137 112 97 79 93 72 72 60 53 35 58 41 19 326 321 294 249 235 243 234 218 197 186 181 183 188 189 189 188 199 205 200 213 209 206 211 206 191 178 181
351 6 25 41 66 77 76 71 72 64 36 23 21 47 39 14 346 333 329 305 278 255 224 218 208 188 190 192 188 194 184 189 195 202 206 213 214 208 206 205 191 202 197
340 351 58 65 56 48 56 52 51 47 23 350 358 23 35 3 348 340 340 337 311 277 250 226 215 201 192 190 192 193 182 196 202 201 207 211 209 214 214 209 193 197 195
329 353 51 64 56 43 37 35 39 18 8 6 353 15 16 5 349 354 348 332 324 316 269 235 216 213 203 191 196 196 192 198 205 205 211 213 208 218 226 215 198 197 202
10 31 26 56 53 45 33 29 35 10 3 342 352 4 8 1 349 346 340 339 335 320 306 244 220 213 207 196 197 197 196 200 205 203 203 205 202 223 227 226 218 203 189
12 24 26 32 39 40 29 19 27 9 346 346 341 354 350 341 343 336 335 327 320 308 304 294 236 216 206 204 200 194 188 197 198 199 204 212 221 227 226 221 213 190 166
22 21 8 12 20 16 17 20 14 354 351 337 330 339 341 339 334 334 330 319 315 314 309 312 265 221 209 207 199 193 193 198 206 206 209 213 214 219 221 225 202 187 170
15 11 12 11 14 14 6 3 358 352 347 335 331 340 336 333 333 331 327 323 322 325 321 311 305 233 211 204 199 183 189 190 197 213 213 211 206 217 212 212 220 175 164
16 14 8 7 3 359 357 355 349 349 336 337 341 337 327 322 332 326 326 326 326 323 322 312 305 272 222 203 202 199 187 186 197 207 204 210 207 203 208 220 202 184 194
3 2 359 353 0 358 349 339 339 341 330 337 340 335 324 325 328 327 325 322 321 316 311 307 304 288 236 188 196 194 184 168 157 167 186 201 201 205 184 151 117 154 193
3 354 347 346 351 354 344 338 339 335 340 343 334 324 324 325 326 325 322 319 314 310 302 299 301 304 278 195 195 169 135 117 112 97 68 155 167 169 160 143 140 105 38
2 356 348 338 344 347 344 340 341 341 340 337 325 323 326 328 324 321 318 315 312 300 295 292 291 308 308 334 209 148 128 128 127 97 85 113 168 152 154 155 156 145 145
354 354 353 342 348 344 339 340 333 343 328 326 328 331 331 329 323 322 318 318 313 304 305 305 312 339 343 28 312 169 155 154 139 130 112 96 129 125 128 108 141 140 134
351 352 353 347 347 344 345 343 346 335 336 337 333 334 336 335 333 324 324 324 313 303 289 280 328 3 12 13 83 283 146 140 133 128 113 119 110 106 105 99 109 111 111
347 344 347 345 349 346 344 343 336 339 342 341 339 336 337 338 332 330 324 327 320 305 275 251 226 351 25 47 76 97 122 116 110 114 118 116 108 102 94 106 108 107 104
353 343 341 345 343 342 342 338 339 339 340 343 339 336 337 337 334 327 329 330 318 306 295 232 195 145 108 93 77 91 111 112 111 113 103 101 98 93 96 88 75 75 86
342 341 340 341 333 337 340 338 335 347 345 338 335 335 336 326 322 315 302 322 320 305 301 283 182 171 170 151 128 130 121 130 137 125 118 118 108 104 96 90 87 92 93
336 343 345 344 340 337 339 343 348 349 338 337 341 332 324 313 304 305 315 314 347 2 356 320 170 104 133 142 133 127 114 125 142 121 127 121 121 116 112 108 105 101 107